Location: Civry
(47.2902°N, 4.6156°E)
Time: 22:59:28
(UTC+00:00)

Cosmos 1954 Rocket - Pass Details

Date: 09 April 2020
Orbit: 752 x 781 km, 74.1° (Epoch: 03 June)

Event Time Altitude Azimuth Distance (km) Brightness Sun altitude
Rises 19:27:41 0° 184° (S) 3,226 7.0 -11.2°
Reaches altitude 10° 19:30:07 10° 179° (S) 2,300 6.2 -11.6°
Maximum altitude 19:35:07 49° 105° (ESE) 983 4.2 -12.4°
Drops below altitude 10° 19:40:07 10° 32° (NNE) 2,298 6.4 -13.1°
Sets 19:42:33 0° 27° (NNE) 3,224 7.3 -13.5°
